Username
Password
Validation
VALIDATION
 
Info Terbaru :
  

Jackpot Winner Domino

Ikutilah global jackpot yang tersedia di system kami, dengan system jackpot terbaru dan pertama di indonesia, anda dapat membeli jackpot dengan harga 100 rupiah saja dan menangkan hadiahnya hingga puluhan juta rupiah.

Jackpot bukanlah suatu keharusan untuk dibeli, namun kami memberikan suatu fitur tambahan untuk member tercinta dari www.dponlineku.com.

Terdapat tiga pilihan harga jackpot yang bisa anda beli yaitu :100,500 dan 1000 rupiah.

Hadiah dari Multi jackpot system www.dponlineku.com

  1. Murni Kecil x 50 harga jackpot yang anda beli.
      (contoH:anda membeli 1000 maka:1000 X 50 = 50.000)
  2. Murni Besar x 50 harga jackpot yang anda beli
      (contoH:anda membeli 1000 maka:1000 X 50 = 50.000)
  3. BALAK x 100 harga jackpot yang anda beli
      (contoH:anda membeli 1000 maka:1000 X 100 = 100.000)
  4. ENAM DEWA x 6666 harga jackpot yang anda beli
      (contoH:anda membeli 1000 maka:1000 X 6666 = 6.666.000)

Demikian adalah penjelasan dari Multi Jackpot www.dponlineku.com terima kasih dan selamat bermain salam hoki dari kami


Jackpot Winner

TOP ENAM DEWA
No. Tanggal Nama Price Win
1 20/01 23:55 CECER67 murni enam 3,333,000
2 20/01 22:48 HARI210485 murni enam 3,333,000
3 20/01 16:39 ACIL66 murni enam 6,666,000
4 20/01 14:08 SANGENYA murni enam 3,333,000
5 20/01 12:17 TONI028 murni enam 3,333,000
TOP BALAK
No. Tanggal Nama Price Win
1 21/01 05:42 VOAQCSZT60 balak 100,000
2 21/01 05:36 AADDACUD61 balak 10,000
3 21/01 05:35 CRFEZL9JDJ balak 10,000
4 21/01 05:31 CIRO23 balak 100,000
5 21/01 05:29 INKHE08 balak 100,000
LATEST JACKPOT
No. Tanggal Nama Price Win
1 21/01 05:42 LEOSHTT murni besar 5,000
2 21/01 05:42 VOAQCSZT60 balak 100,000
3 21/01 05:42 FAJAR0 murni kecil 50,000
4 21/01 05:41 MADA77 murni kecil 50,000
5 21/01 05:40 MOA76 murni kecil 50,000
6 21/01 05:39 IIK_NICK murni kecil 5,000
7 21/01 05:39 CIRO23 murni kecil 50,000
8 21/01 05:38 LEOSHTT murni kecil 5,000
9 21/01 05:37 ANDYMESSI murni besar 50,000
10 21/01 05:36 AADDACUD61 balak 10,000
11 21/01 05:35 CRFEZL9JDJ balak 10,000
12 21/01 05:34 ALIKEPUR murni besar 50,000
13 21/01 05:32 BUSTED15 murni kecil 50,000
14 21/01 05:32 RULER99 murni kecil 5,000
15 21/01 05:31 CIRO23 balak 100,000
16 21/01 05:30 AADDAIAA2 murni besar 5,000
17 21/01 05:29 INKHE08 balak 100,000
18 21/01 05:28 TEMPEKTUO1 murni besar 50,000
19 21/01 05:28 TOGE9393 murni kecil 5,000
20 21/01 05:27 MENSENN18 murni besar 5,000
21 21/01 05:27 ARIS49 murni besar 25,000
22 21/01 05:26 C701877E murni kecil 25,000
23 21/01 05:25 JNG99 murni kecil 50,000
24 21/01 05:25 AULI488 murni besar 5,000
25 21/01 05:23 COMET86 murni besar 50,000
26 21/01 05:22 BIKUBIKU murni besar 50,000
27 21/01 05:19 KBJK03KSLT murni besar 5,000
28 21/01 05:19 YADAH88 murni besar 25,000
29 21/01 05:17 MAKANAS murni besar 50,000
30 21/01 05:17 ASTA555 murni besar 50,000
31 21/01 05:15 BENGHAR93 murni kecil 25,000
32 21/01 05:15 JABLUN murni kecil 5,000
33 21/01 05:15 EZIT murni besar 50,000
34 21/01 05:15 IN3NGB4L3 murni besar 5,000
35 21/01 05:13 PANU5 lucky99 50,000
36 21/01 05:13 SPORTLIA balak 100,000
37 21/01 05:13 EOSRURI07 murni kecil 25,000
38 21/01 05:12 CEKI1234 balak 100,000
39 21/01 05:11 JEMBOT9999 murni kecil 5,000
40 21/01 05:11 HITJAMANOW balak 100,000
41 21/01 05:10 VANTAKURZ murni besar 25,000
42 21/01 05:10 EDO114 balak 100,000
43 21/01 05:09 SPORTLIA balak 100,000
44 21/01 05:07 SPORTLIA murni besar 50,000
45 21/01 05:07 GANASSS02 murni kecil 50,000
46 21/01 05:07 SY78890 murni kecil 5,000
47 21/01 05:06 MANCAAII lucky99 25,000
48 21/01 05:05 K3QNTADQ53 murni kecil 50,000
49 21/01 05:05 DAVEN99 balak 10,000
50 21/01 05:05 KUPU2M murni besar 25,000


Situs Poker Online
Dewapoker.com Hadir untuk semua pecinta permainan kartu poker online yang khususnya berada di asia. Dengan system teknology baru dan server kecepatan tinggi akan membuat permainan poker anda lebih seru dan menarik bersama teman2x anda maupun saingan anda. Cukup lakukan login dan langsung bermain tanpa download. Dewapoker.com dengan encrypsi server yang tinggi akan menjamin keamanan data para member.
Terms & Conditions Link Alternatif Video Dewapoker
© Copyright 2012 - 2018 Dewa Poker. All right reserved.
Dewa.FM